Terug naar catalogus

FENGYUN 1C DEB

ActiefSSO
NORAD 29782·DEBRIS·🇨🇳 China

Gelanceerd May 10, 1999 vanaf Taiyuan Satellite Launch Center

Loading…

Volgende Passages (komende 24 uur)

TLE

VersSource: Space-Track

Epoch: Sep 14, 2026, 21:59 UTC

1 29782U 99025BY  26257.91662502  .00001366  00000-0  74995-3 0  9999
2 29782  99.0811 320.3482 0055416 146.8069  28.5118 14.12705873  5687

Volg FENGYUN 1C DEB in realtime met AllMySat

Download on the App Store